Date String (YYYY-MM-DD hh:mm:ss) UTC,Instrument flags,Ambient pressure (hPa),Sample flow (lpm),Bypass flow (lpm),Sample temperature (°C),Ambient temperature (°C),ASC tube jacket temperature (°C),LED temperature (°C),Box temperature (°C),Sample RH (%),Span deviation,Mass concentration (μg/m³),Mass concentration (μg/m³),Mass concentration (μg/m³)
DateTimeUTC,F1_M11,P_M11,Q1_M11,Q2_M11,T1_M11,T2_M11,T3_M11,T4_M11,T5_M11,U1_M11,ZSPAN_M11,X0_M11,X2_M11,X1_M11
2022-10-22 04:00:00,,0815.4,5.00,0.00,30.0,28.4,00.0,38.9,31.7,06.4,0000.0,0009.25,0003.53,0003.15
2022-10-22 04:01:00,,0815.4,4.99,0.00,30.0,28.4,00.0,38.9,31.7,06.4,0000.0,0009.72,0003.53,0003.15
2022-10-22 04:02:00,,0815.3,5.01,0.00,30.0,28.4,00.0,38.9,31.7,06.3,0000.0,0010.50,0003.50,0003.14
2022-10-22 04:03:00,,0815.4,5.01,0.00,30.0,28.4,00.0,38.9,31.7,06.3,0000.0,0010.16,0003.46,0003.13
2022-10-22 04:04:00,,0815.3,5.01,0.00,30.0,28.4,00.0,38.9,31.7,06.3,0000.0,0009.46,0003.47,0003.12
2022-10-22 04:05:00,,0815.1,5.00,0.00,30.0,28.4,00.0,38.9,31.7,06.2,0000.0,0008.44,0003.47,0003.12
2022-10-22 04:06:00,,0815.2,4.99,0.00,30.0,28.4,00.0,38.9,31.7,06.0,0000.0,0008.32,0003.47,0003.12
2022-10-22 04:07:00,,0815.3,5.00,0.00,30.0,28.4,00.0,38.9,31.7,05.9,0000.0,0008.29,0003.48,0003.12
2022-10-22 04:08:00,,0815.2,5.00,0.00,30.0,28.4,00.0,38.9,31.7,06.0,0000.0,0008.33,0003.49,0003.12
2022-10-22 04:09:00,,0815.2,5.01,0.00,30.0,28.4,00.0,38.9,31.7,06.0,0000.0,0008.16,0003.45,0003.12
2022-10-22 04:10:00,,0815.3,5.00,0.00,30.0,28.4,00.0,38.9,31.7,06.0,0000.0,0008.38,0003.46,0003.13
2022-10-22 04:11:00,,0815.3,4.99,0.00,30.0,28.4,00.0,38.9,31.7,06.1,0000.0,0008.63,0003.46,0003.13
2022-10-22 04:12:00,,0815.4,5.00,0.00,30.0,28.4,00.0,38.9,31.8,05.8,0000.0,0008.13,0003.47,0003.13
2022-10-22 04:13:00,,0815.5,4.99,0.00,30.0,28.4,00.0,38.9,31.7,05.7,0000.0,0006.93,0003.50,0003.13
2022-10-22 04:14:00,,0815.4,5.00,0.00,30.0,28.4,00.0,38.9,31.7,05.8,0000.0,0006.63,0003.53,0003.13
2022-10-22 04:15:00,,0815.5,5.00,0.00,30.0,28.5,00.0,38.9,31.8,05.8,0000.0,0006.60,0003.50,0003.14
2022-10-22 04:16:00,,0815.5,4.99,0.00,30.0,28.5,00.0,38.9,31.8,06.0,0000.0,0006.97,0003.49,0003.14
2022-10-22 04:17:00,,0815.5,5.00,0.00,30.0,28.5,00.0,38.9,31.8,06.0,0000.0,0007.51,0003.47,0003.15
2022-10-22 04:18:00,,0815.4,5.00,0.00,30.0,28.5,00.0,38.9,31.8,06.1,0000.0,0007.93,0003.49,0003.16
2022-10-22 04:19:00,,0815.7,5.00,0.00,30.0,28.5,00.0,38.9,31.8,05.9,0000.0,0008.11,0003.50,0003.16
2022-10-22 04:20:00,,0816.0,5.01,0.00,30.0,28.5,00.0,38.9,31.8,05.7,0000.0,0008.35,0003.51,0003.17
2022-10-22 04:21:00,,0816.1,5.00,0.00,30.0,28.5,00.0,38.9,31.8,05.8,0000.0,0008.33,0003.53,0003.16
2022-10-22 04:22:00,,0816.0,5.00,0.00,30.0,28.5,00.0,38.9,31.8,05.9,0000.0,0008.37,0003.56,0003.16
2022-10-22 04:23:00,,0815.7,5.00,0.00,30.0,28.5,00.0,38.9,31.8,06.0,0000.0,0008.39,0003.58,0003.17
2022-10-22 04:24:00,,0815.8,5.01,0.00,30.0,28.6,00.0,38.9,31.9,05.9,0000.0,0008.50,0003.61,0003.20
2022-10-22 04:25:00,,0816.1,5.00,0.00,30.1,28.6,00.0,38.9,31.8,05.9,0000.0,0008.49,0003.63,0003.23
2022-10-22 04:26:00,,0815.7,4.99,0.00,30.1,28.5,00.0,38.9,31.9,05.8,0000.0,0008.48,0003.65,0003.25
2022-10-22 04:27:00,,0815.4,4.99,0.00,30.1,28.5,00.0,38.9,31.8,05.6,0000.0,0008.18,0003.67,0003.26
2022-10-22 04:28:00,,0815.2,4.99,0.00,30.1,28.5,00.0,38.9,31.9,05.6,0000.0,0008.10,0003.69,0003.27
2022-10-22 04:29:00,,0815.3,4.99,0.00,30.1,28.5,00.0,38.9,31.9,05.6,0000.0,0007.88,0003.67,0003.27
2022-10-22 04:30:00,,0815.3,5.01,0.00,30.1,28.5,00.0,38.9,31.9,05.6,0000.0,0007.81,0003.65,0003.27
2022-10-22 04:31:00,,0815.4,5.00,0.00,30.1,28.5,00.0,38.9,31.8,05.7,0000.0,0007.81,0003.66,0003.29
2022-10-22 04:32:00,,0815.3,5.01,0.00,30.1,28.5,00.0,38.9,31.8,05.7,0000.0,0008.23,0003.67,0003.30
2022-10-22 04:33:00,,0815.4,5.00,0.00,30.1,28.5,00.0,38.9,31.9,05.8,0000.0,0007.88,0003.65,0003.31
2022-10-22 04:34:00,,0815.5,4.99,0.00,30.1,28.6,00.0,39.0,31.9,05.9,0000.0,0007.86,0003.66,0003.31
2022-10-22 04:35:00,,0815.4,5.00,0.00,30.1,28.6,00.0,39.0,31.9,05.8,0000.0,0007.82,0003.65,0003.31
2022-10-22 04:36:00,,0815.3,5.00,0.00,30.1,28.5,00.0,39.0,31.8,05.8,0000.0,0008.06,0003.66,0003.31
2022-10-22 04:37:00,,0815.4,4.99,0.00,30.1,28.5,00.0,39.0,31.8,05.8,0000.0,0008.19,0003.68,0003.33
2022-10-22 04:38:00,,0815.3,5.00,0.00,30.1,28.5,00.0,39.0,31.7,05.8,0000.0,0008.62,0003.71,0003.35
2022-10-22 04:39:00,,0815.3,5.00,0.00,30.1,28.5,00.0,39.0,31.8,05.7,0000.0,0008.61,0003.73,0003.37
2022-10-22 04:40:00,,0815.3,5.01,0.00,30.1,28.5,00.0,39.0,31.8,05.8,0000.0,0008.99,0003.77,0003.39
2022-10-22 04:41:00,,0815.1,5.00,0.00,30.1,28.4,00.0,38.9,31.9,06.0,0000.0,0009.53,0003.82,0003.43
2022-10-22 04:42:00,,0815.2,5.00,0.00,30.1,28.4,00.0,38.9,31.9,06.1,0000.0,0009.95,0003.90,0003.48
2022-10-22 04:43:00,,0815.1,5.01,0.00,30.1,28.4,00.0,38.9,31.9,06.3,0000.0,0009.49,0003.97,0003.55
2022-10-22 04:44:00,,0815.1,5.00,0.00,30.1,28.4,00.0,38.9,31.8,06.3,0000.0,0009.89,0004.04,0003.61
2022-10-22 04:45:00,,0815.1,4.99,0.00,30.0,28.4,00.0,38.9,31.8,06.3,0000.0,0010.76,0004.11,0003.68
2022-10-22 04:46:00,,0815.2,5.01,0.00,30.0,28.4,00.0,38.9,31.8,06.4,0000.0,0010.91,0004.19,0003.76
2022-10-22 04:47:00,,0815.1,4.99,0.00,30.0,28.4,00.0,38.9,31.8,06.4,0000.0,0010.80,0004.26,0003.83
2022-10-22 04:48:00,,0815.2,5.01,0.00,30.0,28.4,00.0,38.9,31.7,06.4,0000.0,0010.82,0004.34,0003.89
2022-10-22 04:49:00,,0815.2,5.00,0.00,30.0,28.4,00.0,38.9,31.8,06.4,0000.0,0011.13,0004.43,0003.96
2022-10-22 04:50:00,,0815.2,5.00,0.00,30.0,28.4,00.0,38.9,31.8,06.4,0000.0,0011.70,0004.53,0004.02
2022-10-22 04:51:00,,0815.2,4.99,0.00,30.0,28.4,00.0,38.9,31.7,06.4,0000.0,0011.21,0004.58,0004.07
2022-10-22 04:52:00,,0815.2,5.01,0.00,30.0,28.4,00.0,38.9,31.8,06.4,0000.0,0010.55,0004.61,0004.12
2022-10-22 04:53:00,,0815.1,5.00,0.00,30.0,28.4,00.0,38.9,31.8,06.3,0000.0,0010.92,0004.62,0004.14
2022-10-22 04:54:00,,0815.0,5.01,0.00,30.0,28.4,00.0,38.9,31.8,06.1,0000.0,0010.85,0004.64,0004.15
2022-10-22 04:55:00,,0815.2,5.00,0.00,30.0,28.4,00.0,38.9,31.7,06.1,0000.0,0010.40,0004.62,0004.16
2022-10-22 04:56:00,,0815.3,5.00,0.00,30.0,28.3,00.0,38.9,31.6,06.2,0000.0,0010.59,0004.60,0004.15
2022-10-22 04:57:00,,0815.1,5.01,0.00,30.0,28.3,00.0,38.9,31.7,06.3,0000.0,0010.48,0004.58,0004.15
2022-10-22 04:58:00,,0815.1,5.01,0.00,30.0,28.3,00.0,38.9,31.7,06.3,0000.0,0010.51,0004.58,0004.15
2022-10-22 04:59:00,,0815.1,5.01,0.00,30.0,28.3,00.0,38.9,31.7,06.2,0000.0,0010.58,0004.57,0004.16
